Time,TemperatureF,DewpointF,PressureIn,WindDirection,WindDirectionDegrees,WindSpeedMPH,WindSpeedGustMPH,Humidity,HourlyPrecipIn,Conditions,Clouds,dailyrainin,SoftwareType,DateUTC
2013-05-16 00:01:00,76.8,63.7,29.42,WNW,286,0.0,0.0,64,0.00,,BKN200,0.00,VWS V14.01,2013-05-16 05:01:00,
2013-05-16 00:06:00,76.7,63.6,29.43,WNW,286,0.0,0.0,64,0.00,,BKN200,0.00,VWS V14.01,2013-05-16 05:06:00,
2013-05-16 00:11:00,76.6,63.5,29.43,WNW,286,0.0,0.0,64,0.00,,BKN200,0.00,VWS V14.01,2013-05-16 05:11:00,
2013-05-16 00:16:00,76.6,64.0,29.43,WNW,286,0.0,0.0,65,0.00,,BKN200,0.00,VWS V14.01,2013-05-16 05:16:00,
2013-05-16 00:21:00,76.4,63.8,29.44,WNW,286,0.0,0.0,65,0.00,,BKN200,0.00,VWS V14.01,2013-05-16 05:21:00,
2013-05-16 00:26:00,76.4,63.8,29.44,WNW,286,0.0,0.0,65,0.00,,BKN200,0.00,VWS V14.01,2013-05-16 05:26:00,
2013-05-16 00:31:00,76.3,63.7,29.44,WNW,286,0.0,0.0,65,0.00,,BKN200,0.00,VWS V14.01,2013-05-16 05:31:00,
2013-05-16 00:36:00,76.2,63.6,29.44,WNW,286,0.0,0.0,65,0.00,,SCT200,0.00,VWS V14.01,2013-05-16 05:36:00,
2013-05-16 00:41:00,76.1,63.9,29.43,WNW,286,0.0,1.0,66,0.00,,SCT200,0.00,VWS V14.01,2013-05-16 05:41:00,
2013-05-16 00:46:00,76.0,63.8,29.43,WNW,286,0.0,0.0,66,0.00,,SCT200,0.00,VWS V14.01,2013-05-16 05:46:00,
2013-05-16 00:51:00,75.9,63.7,29.43,WNW,286,0.0,1.0,66,0.00,,SCT200,0.00,VWS V14.01,2013-05-16 05:51:00,
2013-05-16 00:56:00,75.8,63.6,29.43,WNW,286,0.0,0.0,66,0.00,,SCT200,0.00,VWS V14.01,2013-05-16 05:56:00,
2013-05-16 01:01:00,75.8,63.6,29.43,WNW,286,0.0,0.0,66,0.00,,SCT200,0.00,VWS V14.01,2013-05-16 06:01:00,
2013-05-16 01:06:00,75.8,63.6,29.43,WNW,286,1.0,4.0,66,0.00,,SCT200,0.00,VWS V14.01,2013-05-16 06:06:00,
2013-05-16 01:11:00,75.7,63.5,29.43,WNW,286,0.0,1.0,66,0.00,,SCT200,0.00,VWS V14.01,2013-05-16 06:11:00,
2013-05-16 01:16:00,75.6,63.5,29.42,WNW,286,0.0,1.0,66,0.00,,SCT200,0.00,VWS V14.01,2013-05-16 06:16:00,
2013-05-16 01:21:00,75.6,63.9,29.42,WNW,286,0.0,4.0,67,0.00,,SCT200,0.00,VWS V14.01,2013-05-16 06:21:00,
2013-05-16 01:26:00,75.5,63.8,29.41,WNW,286,0.0,2.0,67,0.00,,SCT200,0.00,VWS V14.01,2013-05-16 06:26:00,
2013-05-16 01:31:00,75.5,64.2,29.41,WNW,286,0.0,2.0,68,0.00,,SCT200,0.00,VWS V14.01,2013-05-16 06:31:00,
2013-05-16 01:37:00,75.4,64.1,29.42,WNW,286,0.0,1.0,68,0.00,,BKN200,0.00,VWS V14.01,2013-05-16 06:37:00,
2013-05-16 01:42:00,75.3,64.0,29.41,WNW,286,0.0,1.0,68,0.00,,BKN200,0.00,VWS V14.01,2013-05-16 06:42:00,
2013-05-16 01:47:00,75.2,64.3,29.41,WNW,286,0.0,0.0,69,0.00,,BKN200,0.00,VWS V14.01,2013-05-16 06:47:00,
2013-05-16 01:52:00,75.1,64.2,29.41,WNW,286,0.0,0.0,69,0.00,,BKN200,0.00,VWS V14.01,2013-05-16 06:52:00,
2013-05-16 01:57:00,74.9,64.1,29.40,WNW,286,0.0,0.0,69,0.00,,BKN200,0.00,VWS V14.01,2013-05-16 06:57:00,
2013-05-16 02:02:00,74.8,64.0,29.40,WNW,286,0.0,0.0,69,0.00,,BKN200,0.00,VWS V14.01,2013-05-16 07:02:00,
2013-05-16 02:07:00,74.6,63.8,29.40,WNW,286,0.0,0.0,69,0.00,,BKN200,0.00,VWS V14.01,2013-05-16 07:07:00,
2013-05-16 02:12:00,74.5,63.7,29.40,WNW,286,0.0,1.0,69,0.00,,BKN200,0.00,VWS V14.01,2013-05-16 07:12:00,
2013-05-16 02:17:00,74.3,63.9,29.40,WNW,286,0.0,1.0,70,0.00,,BKN200,0.00,VWS V14.01,2013-05-16 07:17:00,
2013-05-16 02:22:00,74.2,63.8,29.40,WNW,286,0.0,0.0,70,0.00,,BKN200,0.00,VWS V14.01,2013-05-16 07:22:00,
2013-05-16 02:27:00,74.0,64.0,29.39,WNW,286,0.0,0.0,71,0.00,,BKN200,0.00,VWS V14.01,2013-05-16 07:27:00,
2013-05-16 02:32:00,74.0,64.0,29.40,WNW,286,0.0,0.0,71,0.00,,BKN200,0.00,VWS V14.01,2013-05-16 07:32:00,
2013-05-16 02:37:00,73.8,63.8,29.40,WNW,286,0.0,1.0,71,0.00,,BKN200,0.00,VWS V14.01,2013-05-16 07:37:00,
2013-05-16 02:42:00,73.7,63.7,29.40,WNW,286,0.0,0.0,71,0.00,,BKN200,0.00,VWS V14.01,2013-05-16 07:42:00,
2013-05-16 02:47:00,73.6,64.0,29.40,WNW,286,1.0,1.0,72,0.00,,BKN200,0.00,VWS V14.01,2013-05-16 07:47:00,
2013-05-16 02:52:00,73.4,63.8,29.41,WNW,286,0.0,1.0,72,0.00,,BKN200,0.00,VWS V14.01,2013-05-16 07:52:00,
2013-05-16 02:57:00,73.3,63.7,29.41,WNW,286,0.0,1.0,72,0.00,,BKN200,0.00,VWS V14.01,2013-05-16 07:57:00,
2013-05-16 03:02:00,73.2,63.6,29.41,WNW,286,0.0,0.0,72,0.00,,BKN200,0.00,VWS V14.01,2013-05-16 08:02:00,
2013-05-16 03:07:00,73.1,63.9,29.41,WNW,286,0.0,0.0,73,0.00,,BKN200,0.00,VWS V14.01,2013-05-16 08:07:00,
2013-05-16 03:12:00,73.0,63.8,29.41,WNW,286,0.0,0.0,73,0.00,,BKN200,0.00,VWS V14.01,2013-05-16 08:12:00,
2013-05-16 03:17:00,72.9,63.8,29.42,WNW,286,0.0,0.0,73,0.00,,BKN200,0.00,VWS V14.01,2013-05-16 08:17:00,
2013-05-16 03:22:00,72.9,63.8,29.42,WNW,286,0.0,0.0,73,0.00,,BKN200,0.00,VWS V14.01,2013-05-16 08:22:00,
2013-05-16 03:27:00,72.8,64.0,29.42,WNW,286,0.0,1.0,74,0.00,,BKN200,0.00,VWS V14.01,2013-05-16 08:27:00,
2013-05-16 03:32:00,72.8,64.0,29.43,WNW,286,0.0,0.0,74,0.00,,BKN200,0.00,VWS V14.01,2013-05-16 08:32:00,
2013-05-16 03:37:00,72.8,64.0,29.43,WNW,286,0.0,0.0,74,0.00,,BKN200,0.00,VWS V14.01,2013-05-16 08:37:00,
2013-05-16 03:42:00,72.8,64.0,29.43,WNW,286,0.0,1.0,74,0.00,,BKN200,0.00,VWS V14.01,2013-05-16 08:42:00,
2013-05-16 03:47:00,72.8,64.0,29.43,WNW,286,0.0,0.0,74,0.00,,BKN200,0.00,VWS V14.01,2013-05-16 08:47:00,
2013-05-16 03:52:00,72.7,63.9,29.43,WNW,286,0.0,0.0,74,0.00,,BKN200,0.00,VWS V14.01,2013-05-16 08:52:00,
2013-05-16 03:57:00,72.7,63.9,29.43,WNW,286,0.0,0.0,74,0.00,,BKN200,0.00,VWS V14.01,2013-05-16 08:57:00,
2013-05-16 04:02:00,72.7,63.9,29.43,WNW,286,0.0,0.0,74,0.00,,BKN200,0.00,VWS V14.01,2013-05-16 09:02:00,
2013-05-16 04:07:00,72.7,63.9,29.44,WNW,286,0.0,0.0,74,0.00,,BKN200,0.00,VWS V14.01,2013-05-16 09:07:00,
2013-05-16 04:12:00,72.6,63.8,29.43,WNW,286,0.0,0.0,74,0.00,,BKN200,0.00,VWS V14.01,2013-05-16 09:12:00,
2013-05-16 04:17:00,72.7,63.5,29.43,WNW,286,0.0,0.0,73,0.00,,BKN200,0.00,VWS V14.01,2013-05-16 09:17:00,
2013-05-16 04:22:00,72.7,63.5,29.43,WNW,286,0.0,0.0,73,0.00,,BKN200,0.00,VWS V14.01,2013-05-16 09:22:00,
2013-05-16 04:27:00,72.8,63.7,29.42,WNW,286,0.0,0.0,73,0.00,,BKN200,0.00,VWS V14.01,2013-05-16 09:27:00,
2013-05-16 04:32:00,72.8,63.3,29.42,WNW,286,0.0,1.0,72,0.00,,BKN200,0.00,VWS V14.01,2013-05-16 09:32:00,
2013-05-16 04:37:00,72.8,63.7,29.44,WNW,286,0.0,0.0,73,0.00,,BKN200,0.00,VWS V14.01,2013-05-16 09:37:00,
2013-05-16 04:42:00,72.7,63.5,29.44,WNW,286,0.0,0.0,73,0.00,,BKN200,0.00,VWS V14.01,2013-05-16 09:42:00,
2013-05-16 04:47:00,72.7,63.5,29.44,WNW,286,0.0,0.0,73,0.00,,BKN200,0.00,VWS V14.01,2013-05-16 09:47:00,
2013-05-16 04:52:00,72.7,63.2,29.44,WNW,286,0.0,0.0,72,0.00,,BKN200,0.00,VWS V14.01,2013-05-16 09:52:00,
2013-05-16 04:57:00,72.7,63.2,29.44,WNW,286,0.0,0.0,72,0.00,,BKN200,0.00,VWS V14.01,2013-05-16 09:57:00,
2013-05-16 05:02:00,72.6,63.1,29.44,WNW,286,0.0,0.0,72,0.00,,BKN200,0.00,VWS V14.01,2013-05-16 10:02:00,
2013-05-16 05:07:00,72.5,63.4,29.44,WNW,286,0.0,0.0,73,0.00,,BKN200,0.00,VWS V14.01,2013-05-16 10:07:00,
2013-05-16 05:12:00,72.5,63.4,29.45,WNW,286,0.0,0.0,73,0.00,,BKN200,0.00,VWS V14.01,2013-05-16 10:12:00,
2013-05-16 05:17:00,72.4,63.3,29.44,WNW,286,0.0,0.0,73,0.00,,BKN200,0.00,VWS V14.01,2013-05-16 10:17:00,
2013-05-16 05:22:00,72.3,63.2,29.44,WNW,286,0.0,1.0,73,0.00,,BKN200,0.00,VWS V14.01,2013-05-16 10:22:00,
2013-05-16 05:27:00,72.2,63.1,29.43,WNW,286,0.0,0.0,73,0.00,,BKN200,0.00,VWS V14.01,2013-05-16 10:27:00,
2013-05-16 05:32:00,72.1,63.0,29.44,WNW,286,0.0,0.0,73,0.00,,BKN200,0.00,VWS V14.01,2013-05-16 10:32:00,
2013-05-16 05:37:00,72.1,63.4,29.44,WNW,286,0.0,0.0,74,0.00,,OVC200,0.00,VWS V14.01,2013-05-16 10:37:00,
2013-05-16 05:42:00,71.9,63.2,29.45,WNW,286,0.0,0.0,74,0.00,,OVC200,0.00,VWS V14.01,2013-05-16 10:42:00,
2013-05-16 05:47:00,71.7,63.4,29.44,WNW,286,0.0,0.0,75,0.00,,OVC200,0.00,VWS V14.01,2013-05-16 10:47:00,
2013-05-16 05:52:00,71.6,63.3,29.45,WNW,286,0.0,0.0,75,0.00,,OVC200,0.00,VWS V14.01,2013-05-16 10:52:00,
2013-05-16 05:57:00,71.4,63.1,29.45,WNW,286,0.0,0.0,75,0.00,,OVC200,0.00,VWS V14.01,2013-05-16 10:57:00,
2013-05-16 06:02:00,71.3,63.0,29.45,WNW,286,0.0,0.0,75,0.00,,OVC200,0.00,VWS V14.01,2013-05-16 11:02:00,
2013-05-16 06:07:00,71.3,63.3,29.45,WNW,286,0.0,1.0,76,0.00,,OVC200,0.00,VWS V14.01,2013-05-16 11:07:00,
2013-05-16 06:12:00,71.2,63.3,29.46,WNW,286,0.0,0.0,76,0.00,,OVC200,0.00,VWS V14.01,2013-05-16 11:12:00,
2013-05-16 06:17:00,71.2,62.9,29.46,WNW,286,0.0,0.0,75,0.00,,OVC200,0.00,VWS V14.01,2013-05-16 11:17:00,
2013-05-16 06:22:00,71.1,62.8,29.47,WNW,286,0.0,1.0,75,0.00,,OVC200,0.00,VWS V14.01,2013-05-16 11:22:00,
2013-05-16 06:27:00,71.1,62.4,29.47,WNW,286,0.0,1.0,74,0.00,,OVC200,0.00,VWS V14.01,2013-05-16 11:27:00,
2013-05-16 06:32:00,71.1,62.4,29.47,WNW,286,0.0,0.0,74,0.00,,OVC200,0.00,VWS V14.01,2013-05-16 11:32:00,
2013-05-16 06:41:00,71.1,62.4,29.47,WNW,286,0.0,2.0,74,0.00,,OVC200,0.00,VWS V14.01,2013-05-16 11:41:00,
2013-05-16 06:46:00,71.2,62.1,29.47,WNW,286,0.0,1.0,73,0.00,,OVC200,0.00,VWS V14.01,2013-05-16 11:46:00,
2013-05-16 06:51:00,71.2,62.5,29.47,WNW,286,0.0,1.0,74,0.00,,OVC200,0.00,VWS V14.01,2013-05-16 11:51:00,
2013-05-16 06:56:00,71.2,62.5,29.47,WNW,286,0.0,1.0,74,0.00,,OVC200,0.00,VWS V14.01,2013-05-16 11:56:00,
2013-05-16 07:01:00,71.3,62.6,29.48,WNW,286,0.0,0.0,74,0.00,,OVC200,0.00,VWS V14.01,2013-05-16 12:01:00,
2013-05-16 07:06:00,71.3,62.2,29.48,WNW,286,0.0,1.0,73,0.00,,OVC200,0.00,VWS V14.01,2013-05-16 12:06:00,
2013-05-16 07:11:00,71.3,62.2,29.48,WNW,286,0.0,2.0,73,0.00,,OVC200,0.00,VWS V14.01,2013-05-16 12:11:00,
2013-05-16 07:16:00,71.4,62.3,29.49,WNW,286,0.0,0.0,73,0.00,,OVC200,0.00,VWS V14.01,2013-05-16 12:16:00,
2013-05-16 07:21:00,71.4,62.7,29.49,WNW,286,0.0,0.0,74,0.00,,OVC200,0.00,VWS V14.01,2013-05-16 12:21:00,
2013-05-16 07:26:00,71.5,62.4,29.49,WNW,286,0.0,0.0,73,0.00,,OVC200,0.00,VWS V14.01,2013-05-16 12:26:00,
2013-05-16 07:31:00,71.5,62.8,29.49,WNW,286,0.0,0.0,74,0.00,,OVC200,0.00,VWS V14.01,2013-05-16 12:31:00,
2013-05-16 07:36:00,71.6,62.5,29.49,WNW,286,0.0,0.0,73,0.00,,-RA,0.00,VWS V14.01,2013-05-16 12:36:00,
2013-05-16 07:41:00,71.6,62.5,29.49,WNW,286,0.0,0.0,73,0.00,,-RA,0.00,VWS V14.01,2013-05-16 12:41:00,
2013-05-16 07:46:00,71.6,62.5,29.49,WNW,286,0.0,0.0,73,0.00,,-RA,0.00,VWS V14.01,2013-05-16 12:46:00,
2013-05-16 07:51:00,71.7,62.6,29.49,WNW,286,0.0,0.0,73,0.00,,-RA,0.00,VWS V14.01,2013-05-16 12:51:00,
2013-05-16 07:56:00,71.8,62.7,29.49,WNW,286,0.0,0.0,73,0.00,,-RA,0.00,VWS V14.01,2013-05-16 12:56:00,
2013-05-16 08:01:00,71.9,63.2,29.49,WNW,286,0.0,1.0,74,0.00,,-RA,0.00,VWS V14.01,2013-05-16 13:01:00,
2013-05-16 08:06:00,72.1,63.4,29.49,WNW,286,0.0,0.0,74,0.00,,-RA,0.00,VWS V14.01,2013-05-16 13:06:00,
2013-05-16 08:11:00,72.3,63.2,29.49,WNW,286,0.0,1.0,73,0.00,,-RA,0.00,VWS V14.01,2013-05-16 13:11:00,
2013-05-16 08:16:00,72.4,63.3,29.48,WNW,286,3.0,3.0,73,0.00,,-RA,0.00,VWS V14.01,2013-05-16 13:16:00,
2013-05-16 08:21:00,72.5,63.4,29.48,WNW,286,0.0,4.0,73,0.00,,-RA,0.00,VWS V14.01,2013-05-16 13:21:00,
2013-05-16 08:26:00,72.7,63.5,29.48,WNW,286,0.0,1.0,73,0.00,,-RA,0.00,VWS V14.01,2013-05-16 13:26:00,
2013-05-16 08:31:00,72.9,63.8,29.47,WNW,286,0.0,1.0,73,0.00,,-RA,0.00,VWS V14.01,2013-05-16 13:31:00,
2013-05-16 08:36:00,73.2,63.6,29.47,WNW,286,0.0,2.0,72,0.00,,-RA,0.00,VWS V14.01,2013-05-16 13:36:00,
2013-05-16 08:41:00,73.3,63.3,29.47,WNW,286,0.0,3.0,71,0.00,,-RA,0.00,VWS V14.01,2013-05-16 13:41:00,
2013-05-16 08:46:00,73.4,63.4,29.47,WNW,286,0.0,1.0,71,0.00,,-RA,0.00,VWS V14.01,2013-05-16 13:46:00,
2013-05-16 08:51:00,73.4,63.4,29.47,WNW,286,0.0,1.0,71,0.00,,OVC250,0.00,VWS V14.01,2013-05-16 13:51:00,
2013-05-16 08:56:00,73.4,63.8,29.48,WNW,286,0.0,2.0,72,0.00,,OVC250,0.00,VWS V14.01,2013-05-16 13:56:00,
2013-05-16 09:01:00,73.5,63.5,29.48,WNW,287,0.0,3.0,71,0.00,,OVC250,0.00,VWS V14.01,2013-05-16 14:01:00,
2013-05-16 09:06:00,73.6,63.6,29.48,WNW,287,0.0,1.0,71,0.00,,OVC250,0.00,VWS V14.01,2013-05-16 14:06:00,
2013-05-16 09:11:00,73.7,63.7,29.48,WNW,287,0.0,2.0,71,0.00,,OVC250,0.00,VWS V14.01,2013-05-16 14:11:00,
2013-05-16 09:16:00,73.9,63.9,29.48,WNW,287,0.0,1.0,71,0.00,,OVC250,0.00,VWS V14.01,2013-05-16 14:16:00,
2013-05-16 09:21:00,74.2,64.2,29.48,WNW,287,0.0,0.0,71,0.00,,OVC250,0.00,VWS V14.01,2013-05-16 14:21:00,
2013-05-16 09:26:00,74.4,64.0,29.48,WNW,287,0.0,1.0,70,0.00,,OVC250,0.00,VWS V14.01,2013-05-16 14:26:00,
2013-05-16 09:31:00,74.6,63.8,29.48,WNW,287,0.0,0.0,69,0.00,,OVC250,0.00,VWS V14.01,2013-05-16 14:31:00,
2013-05-16 09:36:00,74.9,64.1,29.48,WNW,287,0.0,0.0,69,0.00,,BKN200,0.00,VWS V14.01,2013-05-16 14:36:00,
2013-05-16 09:41:00,75.0,63.7,29.48,WNW,287,0.0,0.0,68,0.00,,BKN200,0.00,VWS V14.01,2013-05-16 14:41:00,
2013-05-16 09:46:00,75.1,63.8,29.48,WNW,286,0.0,0.0,68,0.00,,BKN200,0.00,VWS V14.01,2013-05-16 14:46:00,
2013-05-16 09:51:00,75.2,63.9,29.48,WNW,286,0.0,0.0,68,0.00,,BKN200,0.00,VWS V14.01,2013-05-16 14:51:00,
2013-05-16 09:56:00,75.2,64.3,29.49,WNW,286,0.0,0.0,69,0.00,,BKN200,0.00,VWS V14.01,2013-05-16 14:56:00,
2013-05-16 10:01:00,75.3,64.8,29.48,WNW,286,0.0,0.0,70,0.00,,BKN200,0.00,VWS V14.01,2013-05-16 15:01:00,
2013-05-16 10:06:00,75.2,64.8,29.48,WNW,285,0.0,2.0,70,0.00,,BKN200,0.00,VWS V14.01,2013-05-16 15:06:00,
2013-05-16 10:11:00,75.0,65.0,29.48,WNW,285,0.0,0.0,71,0.00,,BKN200,0.00,VWS V14.01,2013-05-16 15:11:00,
2013-05-16 10:16:00,74.8,64.8,29.48,WNW,285,0.0,1.0,71,0.00,,BKN200,0.00,VWS V14.01,2013-05-16 15:16:00,
2013-05-16 10:21:00,74.7,64.7,29.48,WNW,285,0.0,0.0,71,0.00,,BKN200,0.00,VWS V14.01,2013-05-16 15:21:00,
2013-05-16 10:26:00,74.6,65.0,29.48,WNW,285,0.0,1.0,72,0.00,,BKN200,0.00,VWS V14.01,2013-05-16 15:26:00,
2013-05-16 10:31:00,74.6,64.6,29.48,WNW,285,0.0,0.0,71,0.00,,BKN200,0.00,VWS V14.01,2013-05-16 15:31:00,
2013-05-16 10:36:00,74.7,65.1,29.48,WNW,285,0.0,0.0,72,0.00,,BKN250,0.00,VWS V14.01,2013-05-16 15:36:00,
2013-05-16 10:41:00,74.8,65.2,29.48,WNW,285,0.0,0.0,72,0.00,,BKN250,0.00,VWS V14.01,2013-05-16 15:41:00,
2013-05-16 10:46:00,74.9,65.3,29.48,WNW,285,0.0,1.0,72,0.00,,BKN250,0.00,VWS V14.01,2013-05-16 15:46:00,
2013-05-16 10:51:00,74.8,65.6,29.48,West,274,0.0,2.0,73,0.00,,BKN250,0.00,VWS V14.01,2013-05-16 15:51:00,
2013-05-16 10:56:00,74.6,65.8,29.48,West,274,0.0,1.0,74,0.00,,BKN250,0.00,VWS V14.01,2013-05-16 15:56:00,
2013-05-16 11:01:00,74.5,65.7,29.48,West,274,0.0,1.0,74,0.00,,BKN250,0.00,VWS V14.01,2013-05-16 16:01:00,
2013-05-16 11:06:00,74.6,66.2,29.48,West,274,0.0,1.0,75,0.00,,BKN250,0.00,VWS V14.01,2013-05-16 16:06:00,
2013-05-16 11:11:00,74.6,66.2,29.49,West,273,0.0,2.0,75,0.00,,BKN250,0.00,VWS V14.01,2013-05-16 16:11:00,
2013-05-16 11:16:00,74.4,66.0,29.48,West,263,0.0,3.0,75,0.00,,BKN250,0.00,VWS V14.01,2013-05-16 16:16:00,
2013-05-16 11:21:00,74.5,66.1,29.49,West,263,0.0,3.0,75,0.00,,BKN250,0.00,VWS V14.01,2013-05-16 16:21:00,
2013-05-16 11:26:00,74.4,66.0,29.49,West,261,0.0,2.0,75,0.00,,BKN250,0.00,VWS V14.01,2013-05-16 16:26:00,
2013-05-16 11:31:00,74.3,65.9,29.49,West,261,1.0,2.0,75,0.00,,BKN250,0.00,VWS V14.01,2013-05-16 16:31:00,
2013-05-16 11:37:00,73.8,65.8,29.49,WSW,242,0.0,3.0,76,0.00,,BKN250,0.00,VWS V14.01,2013-05-16 16:37:00,
2013-05-16 11:42:00,73.3,65.7,29.49,SW,214,0.0,3.0,77,0.00,,BKN250,0.00,VWS V14.01,2013-05-16 16:42:00,
2013-05-16 11:47:00,72.8,65.2,29.49,South,180,0.0,4.0,77,0.00,,BKN250,0.00,VWS V14.01,2013-05-16 16:47:00,
2013-05-16 11:52:00,72.6,64.6,29.48,South,176,1.0,4.0,76,0.00,,BKN250,0.00,VWS V14.01,2013-05-16 16:52:00,
2013-05-16 11:57:00,72.4,64.4,29.48,ESE,106,1.0,6.0,76,0.00,,BKN250,0.00,VWS V14.01,2013-05-16 16:57:00,
2013-05-16 12:02:00,72.4,64.0,29.48,SSE,153,1.0,5.0,75,0.00,,BKN250,0.00,VWS V14.01,2013-05-16 17:02:00,
2013-05-16 12:07:00,72.4,64.0,29.48,SSE,153,0.0,1.0,75,0.00,,BKN250,0.00,VWS V14.01,2013-05-16 17:07:00,
2013-05-16 12:12:00,72.2,63.8,29.48,SSE,153,0.0,3.0,75,0.00,,BKN250,0.00,VWS V14.01,2013-05-16 17:12:00,
2013-05-16 12:17:00,72.1,63.4,29.48,SSE,160,0.0,4.0,74,0.00,,BKN250,0.00,VWS V14.01,2013-05-16 17:17:00,
2013-05-16 12:22:00,71.6,62.9,29.48,SSE,163,0.0,4.0,74,0.00,,BKN250,0.00,VWS V14.01,2013-05-16 17:22:00,
2013-05-16 12:27:00,71.0,62.7,29.47,SSE,162,0.0,3.0,75,0.00,,BKN250,0.00,VWS V14.01,2013-05-16 17:27:00,
2013-05-16 12:32:00,71.0,62.7,29.47,SSE,162,0.0,3.0,75,0.00,,BKN250,0.00,VWS V14.01,2013-05-16 17:32:00,
2013-05-16 12:37:00,71.1,62.8,29.47,SSE,162,0.0,1.0,75,0.00,,BKN250,0.00,VWS V14.01,2013-05-16 17:37:00,
2013-05-16 12:42:00,71.1,62.8,29.47,SSE,161,0.0,3.0,75,0.00,,BKN250,0.00,VWS V14.01,2013-05-16 17:42:00,
2013-05-16 12:47:00,71.2,63.3,29.46,SSE,161,0.0,2.0,76,0.00,,BKN250,0.00,VWS V14.01,2013-05-16 17:47:00,
2013-05-16 12:52:00,71.3,63.3,29.46,SSE,161,0.0,1.0,76,0.00,,BKN250,0.00,VWS V14.01,2013-05-16 17:52:00,
2013-05-16 12:57:00,71.4,63.1,29.46,SSW,202,0.0,1.0,75,0.00,,BKN250,0.00,VWS V14.01,2013-05-16 17:57:00,
2013-05-16 13:02:00,71.5,63.2,29.46,SSW,202,0.0,1.0,75,0.00,,BKN250,0.00,VWS V14.01,2013-05-16 18:02:00,
2013-05-16 13:07:00,71.6,63.6,29.46,SSW,201,0.0,0.0,76,0.00,,BKN250,0.00,VWS V14.01,2013-05-16 18:07:00,
2013-05-16 13:12:00,71.9,63.9,29.45,SSW,202,0.0,1.0,76,0.00,,BKN250,0.00,VWS V14.01,2013-05-16 18:12:00,
2013-05-16 13:17:00,72.2,64.2,29.46,SSW,199,0.0,2.0,76,0.00,,BKN250,0.00,VWS V14.01,2013-05-16 18:17:00,
2013-05-16 13:22:00,72.9,64.1,29.45,SSW,199,0.0,1.0,74,0.00,,BKN250,0.00,VWS V14.01,2013-05-16 18:22:00,
2013-05-16 13:27:00,73.4,64.6,29.45,SSW,198,0.0,2.0,74,0.00,,BKN250,0.00,VWS V14.01,2013-05-16 18:27:00,
2013-05-16 13:32:00,74.0,65.2,29.45,SSW,197,0.0,2.0,74,0.00,,BKN250,0.00,VWS V14.01,2013-05-16 18:32:00,
2013-05-16 13:37:00,74.7,64.3,29.45,SSW,197,0.0,1.0,70,0.00,,BKN250,0.00,VWS V14.01,2013-05-16 18:37:00,
2013-05-16 13:42:00,75.4,64.5,29.45,SE,127,0.0,6.0,69,0.00,,BKN250,0.00,VWS V14.01,2013-05-16 18:42:00,
2013-05-16 13:47:00,76.0,63.4,29.45,SE,125,0.0,4.0,65,0.00,,BKN250,0.00,VWS V14.01,2013-05-16 18:47:00,
2013-05-16 13:52:00,76.5,63.4,29.45,SE,128,1.0,3.0,64,0.00,,BKN250,0.00,VWS V14.01,2013-05-16 18:52:00,
2013-05-16 13:57:00,76.7,63.6,29.44,SE,127,0.0,5.0,64,0.00,,BKN250,0.00,VWS V14.01,2013-05-16 18:57:00,
2013-05-16 14:02:00,77.0,64.3,29.44,SE,127,0.0,3.0,65,0.00,,BKN250,0.00,VWS V14.01,2013-05-16 19:02:00,
2013-05-16 14:10:00,77.4,64.7,29.44,SE,127,0.0,3.0,65,0.00,,BKN250,0.00,VWS V14.01,2013-05-16 19:10:00,
2013-05-16 14:20:00,78.2,65.5,29.44,ESE,107,0.0,4.0,65,0.00,,BKN250,0.00,VWS V14.01,2013-05-16 19:20:00,
2013-05-16 14:25:00,78.3,65.6,29.43,SE,139,0.0,5.0,65,0.00,,BKN250,0.00,VWS V14.01,2013-05-16 19:25:00,
2013-05-16 14:37:00,78.7,65.5,29.43,ESE,104,0.0,6.0,64,0.00,,BKN250,0.00,VWS V14.01,2013-05-16 19:37:00,
2013-05-16 14:42:00,78.9,65.7,29.43,ESE,104,2.0,4.0,64,0.00,,BKN250,0.00,VWS V14.01,2013-05-16 19:42:00,
2013-05-16 14:47:00,79.2,66.0,29.43,SW,235,3.0,4.0,64,0.00,,BKN250,0.00,VWS V14.01,2013-05-16 19:47:00,
2013-05-16 14:52:00,79.3,65.2,29.43,SSE,149,0.0,4.0,62,0.00,,BKN250,0.00,VWS V14.01,2013-05-16 19:52:00,
2013-05-16 14:57:00,79.5,64.9,29.43,WNW,288,0.0,4.0,61,0.00,,BKN250,0.00,VWS V14.01,2013-05-16 19:57:00,
2013-05-16 15:02:00,79.8,64.7,29.43,West,267,0.0,3.0,60,0.00,,BKN250,0.00,VWS V14.01,2013-05-16 20:02:00,
2013-05-16 15:07:00,80.0,64.9,29.43,East,94,0.0,7.0,60,0.00,,BKN250,0.00,VWS V14.01,2013-05-16 20:07:00,
2013-05-16 15:12:00,80.3,62.7,29.43,SE,131,4.0,6.0,55,0.00,,BKN250,0.00,VWS V14.01,2013-05-16 20:12:00,
2013-05-16 15:17:00,80.2,59.3,29.43,SE,145,2.0,5.0,49,0.00,,BKN250,0.00,VWS V14.01,2013-05-16 20:17:00,
2013-05-16 15:22:00,80.5,60.2,29.43,South,183,0.0,4.0,50,0.00,,BKN250,0.00,VWS V14.01,2013-05-16 20:22:00,
2013-05-16 15:27:00,81.1,59.6,29.42,South,180,0.0,3.0,48,0.00,,BKN250,0.00,VWS V14.01,2013-05-16 20:27:00,
2013-05-16 15:32:00,81.7,60.1,29.42,South,189,0.0,4.0,48,0.00,,BKN250,0.00,VWS V14.01,2013-05-16 20:32:00,
2013-05-16 15:37:00,82.1,59.9,29.42,South,190,0.0,3.0,47,0.00,,BKN250,0.00,VWS V14.01,2013-05-16 20:37:00,
2013-05-16 15:42:00,82.2,60.0,29.43,West,271,0.0,4.0,47,0.00,,BKN250,0.00,VWS V14.01,2013-05-16 20:42:00,
2013-05-16 15:47:00,82.1,59.3,29.42,SSW,199,1.0,3.0,46,0.00,,BKN250,0.00,VWS V14.01,2013-05-16 20:47:00,
2013-05-16 15:57:00,81.7,58.9,29.42,East,91,0.0,14.0,46,0.00,,BKN250,0.00,VWS V14.01,2013-05-16 20:57:00,
2013-05-16 16:02:00,81.3,59.8,29.43,SE,124,0.0,5.0,48,0.00,,BKN250,0.00,VWS V14.01,2013-05-16 21:02:00,
2013-05-16 16:07:00,81.2,59.7,29.43,SE,125,0.0,4.0,48,0.00,,BKN250,0.00,VWS V14.01,2013-05-16 21:07:00,
2013-05-16 16:12:00,81.0,59.5,29.42,SE,125,0.0,4.0,48,0.00,,BKN250,0.00,VWS V14.01,2013-05-16 21:12:00,
2013-05-16 16:17:00,80.7,59.8,29.42,SE,125,2.0,2.0,49,0.00,,BKN250,0.00,VWS V14.01,2013-05-16 21:17:00,
2013-05-16 16:22:00,80.4,58.9,29.42,WSW,257,0.0,5.0,48,0.00,,BKN250,0.00,VWS V14.01,2013-05-16 21:22:00,
2013-05-16 16:27:00,80.1,59.2,29.42,WSW,255,0.0,2.0,49,0.00,,BKN250,0.00,VWS V14.01,2013-05-16 21:27:00,
2013-05-16 16:32:00,79.9,59.0,29.42,WSW,240,0.0,3.0,49,0.00,,BKN250,0.00,VWS V14.01,2013-05-16 21:32:00,
2013-05-16 16:37:00,79.8,59.5,29.42,SW,236,0.0,3.0,50,0.00,,BKN250,0.00,VWS V14.01,2013-05-16 21:37:00,
2013-05-16 16:42:00,79.7,59.4,29.42,SW,235,0.0,2.0,50,0.00,,BKN250,0.00,VWS V14.01,2013-05-16 21:42:00,
2013-05-16 16:47:00,79.7,59.4,29.42,SSW,203,0.0,4.0,50,0.00,,BKN250,0.00,VWS V14.01,2013-05-16 21:47:00,
2013-05-16 16:52:00,79.8,58.4,29.42,SSW,204,0.0,1.0,48,0.00,,BKN250,0.00,VWS V14.01,2013-05-16 21:52:00,
2013-05-16 16:57:00,79.8,57.8,29.42,WSW,240,0.0,4.0,47,0.00,,BKN250,0.00,VWS V14.01,2013-05-16 21:57:00,
2013-05-16 17:07:00,79.2,57.2,29.42,SE,132,0.0,5.0,47,0.00,,BKN250,0.00,VWS V14.01,2013-05-16 22:07:00,
2013-05-16 17:12:00,79.0,57.7,29.42,SE,135,0.0,7.0,48,0.00,,BKN250,0.00,VWS V14.01,2013-05-16 22:12:00,
2013-05-16 17:17:00,78.8,57.5,29.43,West,279,0.0,8.0,48,0.00,,BKN250,0.00,VWS V14.01,2013-05-16 22:17:00,
2013-05-16 17:27:00,78.1,58.5,29.43,WNW,293,0.0,7.0,51,0.00,,BKN250,0.00,VWS V14.01,2013-05-16 22:27:00,
2013-05-16 17:32:00,78.0,59.0,29.43,West,267,0.0,7.0,52,0.00,,BKN250,0.00,VWS V14.01,2013-05-16 22:32:00,
2013-05-16 17:41:00,77.4,59.0,29.43,SSE,155,2.0,6.0,53,0.00,,BKN250,0.00,VWS V14.01,2013-05-16 22:41:00,
2013-05-16 17:46:00,77.0,59.1,29.42,WNW,288,1.0,7.0,54,0.00,,BKN250,0.00,VWS V14.01,2013-05-16 22:46:00,
2013-05-16 17:51:00,76.7,59.3,29.43,West,275,0.0,3.0,55,0.00,,BKN250,0.00,VWS V14.01,2013-05-16 22:51:00,
2013-05-16 17:56:00,76.3,59.0,29.43,WSW,241,0.0,6.0,55,0.00,,BKN250,0.00,VWS V14.01,2013-05-16 22:56:00,
2013-05-16 18:01:00,76.1,59.3,29.43,South,175,0.0,6.0,56,0.00,,BKN250,0.00,VWS V14.01,2013-05-16 23:01:00,
2013-05-16 18:06:00,75.9,59.1,29.42,SE,126,0.0,4.0,56,0.00,,BKN250,0.00,VWS V14.01,2013-05-16 23:06:00,
2013-05-16 18:11:00,75.8,58.5,29.43,SE,136,0.0,3.0,55,0.00,,BKN250,0.00,VWS V14.01,2013-05-16 23:11:00,
2013-05-16 18:21:00,75.5,58.2,29.43,ESE,117,0.0,6.0,55,0.00,,BKN250,0.00,VWS V14.01,2013-05-16 23:21:00,
2013-05-16 18:26:00,75.4,58.1,29.43,South,178,0.0,5.0,55,0.00,,BKN250,0.00,VWS V14.01,2013-05-16 23:26:00,
2013-05-16 18:31:00,75.2,57.9,29.43,SSE,166,3.0,3.0,55,0.00,,BKN250,0.00,VWS V14.01,2013-05-16 23:31:00,
2013-05-16 18:36:00,75.0,58.3,29.44,NW,323,0.0,4.0,56,0.00,,BKN250,0.00,VWS V14.01,2013-05-16 23:36:00,
2013-05-16 18:41:00,74.7,58.5,29.43,NNW,327,0.0,0.0,57,0.00,,BKN250,0.00,VWS V14.01,2013-05-16 23:41:00,
2013-05-16 18:46:00,74.6,58.4,29.43,NNW,327,0.0,0.0,57,0.00,,BKN250,0.00,VWS V14.01,2013-05-16 23:46:00,
2013-05-16 18:51:00,74.5,58.3,29.43,NW,326,1.0,2.0,57,0.00,,BKN250,0.00,VWS V14.01,2013-05-16 23:51:00,
2013-05-16 18:56:00,74.3,57.6,29.43,NW,321,0.0,4.0,56,0.00,,BKN250,0.00,VWS V14.01,2013-05-16 23:56:00,
2013-05-16 19:01:00,74.2,58.0,29.43,NW,321,0.0,0.0,57,0.00,,BKN250,0.00,VWS V14.01,2013-05-17 00:01:00,
2013-05-16 19:06:00,74.2,58.0,29.44,NW,321,0.0,0.0,57,0.00,,BKN250,0.00,VWS V14.01,2013-05-17 00:06:00,
2013-05-16 19:11:00,74.1,57.9,29.43,NW,312,0.0,5.0,57,0.00,,BKN250,0.00,VWS V14.01,2013-05-17 00:11:00,
2013-05-16 19:16:00,73.9,57.7,29.43,NW,312,0.0,2.0,57,0.00,,BKN250,0.00,VWS V14.01,2013-05-17 00:16:00,
2013-05-16 19:21:00,73.9,57.7,29.43,NW,312,0.0,2.0,57,0.00,,BKN250,0.00,VWS V14.01,2013-05-17 00:21:00,
2013-05-16 19:26:00,73.8,57.6,29.43,NW,312,0.0,0.0,57,0.00,,BKN250,0.00,VWS V14.01,2013-05-17 00:26:00,
2013-05-16 19:31:00,73.6,57.4,29.43,NW,312,0.0,2.0,57,0.00,,BKN250,0.00,VWS V14.01,2013-05-17 00:31:00,
2013-05-16 19:36:00,73.5,57.8,29.43,NW,312,0.0,2.0,58,0.00,,BKN250,0.00,VWS V14.01,2013-05-17 00:36:00,
2013-05-16 19:41:00,73.4,57.7,29.43,NW,312,0.0,1.0,58,0.00,,BKN250,0.00,VWS V14.01,2013-05-17 00:41:00,
2013-05-16 19:51:00,73.2,57.5,29.44,NW,312,0.0,0.0,58,0.00,,BKN250,0.00,VWS V14.01,2013-05-17 00:51:00,
2013-05-16 19:56:00,73.2,58.0,29.44,NW,312,0.0,0.0,59,0.00,,BKN250,0.00,VWS V14.01,2013-05-17 00:56:00,
2013-05-16 20:01:00,73.1,57.9,29.44,NW,312,0.0,2.0,59,0.00,,BKN250,0.00,VWS V14.01,2013-05-17 01:01:00,
2013-05-16 20:06:00,73.1,57.9,29.44,NW,312,0.0,0.0,59,0.00,,BKN250,0.00,VWS V14.01,2013-05-17 01:06:00,
2013-05-16 20:11:00,72.9,57.8,29.45,NW,312,0.0,1.0,59,0.00,,BKN250,0.00,VWS V14.01,2013-05-17 01:11:00,
2013-05-16 20:16:00,72.9,57.8,29.45,NW,312,0.0,0.0,59,0.00,,BKN250,0.00,VWS V14.01,2013-05-17 01:16:00,
2013-05-16 20:21:00,72.8,57.7,29.45,NW,312,0.0,0.0,59,0.00,,BKN250,0.00,VWS V14.01,2013-05-17 01:21:00,
2013-05-16 20:26:00,72.7,58.0,29.45,NW,312,0.0,0.0,60,0.00,,BKN250,0.00,VWS V14.01,2013-05-17 01:26:00,
2013-05-16 20:31:00,72.6,57.9,29.45,NW,312,0.0,0.0,60,0.00,,BKN250,0.00,VWS V14.01,2013-05-17 01:31:00,
2013-05-16 20:36:00,72.5,58.3,29.45,NW,312,0.0,1.0,61,0.00,,BKN250,0.00,VWS V14.01,2013-05-17 01:36:00,
2013-05-16 20:41:00,72.4,58.2,29.45,NW,312,0.0,0.0,61,0.00,,BKN250,0.00,VWS V14.01,2013-05-17 01:41:00,
2013-05-16 20:46:00,72.2,58.0,29.45,NW,312,0.0,0.0,61,0.00,,BKN250,0.00,VWS V14.01,2013-05-17 01:46:00,
2013-05-16 20:51:00,72.1,57.9,29.45,NW,312,0.0,0.0,61,0.00,,BKN250,0.00,VWS V14.01,2013-05-17 01:51:00,
2013-05-16 20:56:00,72.0,57.8,29.45,NW,312,0.0,0.0,61,0.00,,BKN250,0.00,VWS V14.01,2013-05-17 01:56:00,
2013-05-16 21:01:00,71.9,57.7,29.45,NW,312,0.0,0.0,61,0.00,,BKN250,0.00,VWS V14.01,2013-05-17 02:01:00,
2013-05-16 21:06:00,71.8,57.6,29.45,NW,312,0.0,0.0,61,0.00,,BKN250,0.00,VWS V14.01,2013-05-17 02:06:00,
2013-05-16 21:11:00,71.7,57.5,29.45,NW,312,0.0,0.0,61,0.00,,BKN250,0.00,VWS V14.01,2013-05-17 02:11:00,
2013-05-16 21:21:00,71.5,57.8,29.45,NW,312,0.0,0.0,62,0.00,,BKN250,0.00,VWS V14.01,2013-05-17 02:21:00,
2013-05-16 21:31:00,71.3,57.6,29.45,NW,312,0.0,0.0,62,0.00,,BKN250,0.00,VWS V14.01,2013-05-17 02:31:00,
2013-05-16 21:36:00,71.3,58.1,29.45,NW,312,0.0,0.0,63,0.00,,BKN250,0.00,VWS V14.01,2013-05-17 02:36:00,
2013-05-16 21:41:00,71.2,58.0,29.46,NW,312,0.0,0.0,63,0.00,,BKN250,0.00,VWS V14.01,2013-05-17 02:41:00,
2013-05-16 21:46:00,71.1,57.9,29.46,NW,312,0.0,0.0,63,0.00,,BKN250,0.00,VWS V14.01,2013-05-17 02:46:00,
2013-05-16 21:51:00,71.0,57.8,29.46,NW,312,0.0,0.0,63,0.00,,BKN250,0.00,VWS V14.01,2013-05-17 02:51:00,
2013-05-16 21:56:00,70.9,58.1,29.46,NW,312,0.0,0.0,64,0.00,,BKN250,0.00,VWS V14.01,2013-05-17 02:56:00,
2013-05-16 22:01:00,70.8,58.0,29.46,NW,312,0.0,0.0,64,0.00,,BKN250,0.00,VWS V14.01,2013-05-17 03:01:00,
2013-05-16 22:06:00,70.7,57.9,29.46,NW,312,0.0,0.0,64,0.00,,BKN250,0.00,VWS V14.01,2013-05-17 03:06:00,
2013-05-16 22:11:00,70.5,58.2,29.46,NW,312,0.0,0.0,65,0.00,,BKN250,0.00,VWS V14.01,2013-05-17 03:11:00,
2013-05-16 22:16:00,70.4,58.1,29.46,NW,312,0.0,0.0,65,0.00,,BKN250,0.00,VWS V14.01,2013-05-17 03:16:00,
2013-05-16 22:21:00,70.3,58.0,29.46,NW,312,0.0,0.0,65,0.00,,BKN250,0.00,VWS V14.01,2013-05-17 03:21:00,
2013-05-16 22:26:00,70.2,58.3,29.46,NW,312,0.0,0.0,66,0.00,,BKN250,0.00,VWS V14.01,2013-05-17 03:26:00,
2013-05-16 22:31:00,70.0,58.1,29.46,NW,312,0.0,0.0,66,0.00,,BKN250,0.00,VWS V14.01,2013-05-17 03:31:00,
2013-05-16 22:37:00,70.0,58.1,29.47,NW,312,0.0,0.0,66,0.00,,BKN250,0.00,VWS V14.01,2013-05-17 03:37:00,
2013-05-16 22:42:00,69.9,58.5,29.46,NW,312,0.0,0.0,67,0.00,,BKN250,0.00,VWS V14.01,2013-05-17 03:42:00,
2013-05-16 22:47:00,69.9,58.5,29.47,NW,312,0.0,0.0,67,0.00,,BKN250,0.00,VWS V14.01,2013-05-17 03:47:00,
2013-05-16 22:52:00,69.8,58.4,29.47,NW,312,0.0,0.0,67,0.00,,BKN250,0.00,VWS V14.01,2013-05-17 03:52:00,
2013-05-16 22:57:00,69.8,58.4,29.47,NW,312,0.0,0.0,67,0.00,,BKN250,0.00,VWS V14.01,2013-05-17 03:57:00,
2013-05-16 23:02:00,69.8,58.4,29.47,NW,312,0.0,0.0,67,0.00,,BKN250,0.00,VWS V14.01,2013-05-17 04:02:00,
2013-05-16 23:07:00,69.8,58.4,29.47,NW,312,0.0,0.0,67,0.00,,BKN250,0.00,VWS V14.01,2013-05-17 04:07:00,
2013-05-16 23:12:00,69.8,58.4,29.47,NW,312,0.0,0.0,67,0.00,,BKN250,0.00,VWS V14.01,2013-05-17 04:12:00,
2013-05-16 23:17:00,69.7,58.7,29.47,NW,312,0.0,0.0,68,0.00,,BKN250,0.00,VWS V14.01,2013-05-17 04:17:00,
2013-05-16 23:22:00,69.7,58.7,29.47,NW,312,0.0,0.0,68,0.00,,BKN250,0.00,VWS V14.01,2013-05-17 04:22:00,
2013-05-16 23:27:00,69.7,58.7,29.47,NW,312,0.0,0.0,68,0.00,,BKN250,0.00,VWS V14.01,2013-05-17 04:27:00,
2013-05-16 23:32:00,69.6,58.2,29.48,NW,312,0.0,0.0,67,0.00,,BKN250,0.00,VWS V14.01,2013-05-17 04:32:00,
2013-05-16 23:37:00,69.6,58.6,29.48,NW,312,0.0,0.0,68,0.00,,BKN250,0.00,VWS V14.01,2013-05-17 04:37:00,
2013-05-16 23:42:00,69.5,58.5,29.48,NW,312,0.0,0.0,68,0.00,,BKN250,0.00,VWS V14.01,2013-05-17 04:42:00,
2013-05-16 23:47:00,69.4,58.4,29.48,NW,312,0.0,0.0,68,0.00,,BKN250,0.00,VWS V14.01,2013-05-17 04:47:00,
2013-05-16 23:52:00,69.3,58.7,29.48,NW,312,0.0,0.0,69,0.00,,BKN250,0.00,VWS V14.01,2013-05-17 04:52:00,
2013-05-16 23:57:00,69.2,58.6,29.48,NW,312,0.0,0.0,69,0.00,,BKN250,0.00,VWS V14.01,2013-05-17 04:57:00,